Project,Study,Ord_Occ,Event_Num,Date_Time_UTC,Date_Time_PST,Lat_Dec,Lon_Dec,Sta_ID,Line,Sta,Depth,Pressure,Temp0,Temp1,Salt0,CorrSalt0,Salt1,CorrSalt1,O2ml/L,AveCorrO2ml/L,StaCorrO2ml/L,FluorV,AveEstChl,StaEstChl,ISUSV,AveEstNO3,StaEstNO3,SigThetaTS0,SigThetaTS1,BAT,XMiss,SPAR,PAR,BTL_Depth,BTL_Temp,BTL_Salt,BTL_O2ml/L,BTL_Chl,BTL_Pha,BTL_NO3
CalCOFI,0701JD,023,213,19-Jan-2007 12:22:54 AM,18-Jan-2007 4:22:54 PM,33.18882,-118.38256,090.0 037.0,090.0,037.0,511.000,515.277,6.5488,6.5492,34.3218,34.3205,34.3200,34.3201,0.29494,0.33,0.33,0.0251,,,1.6194,37.05,38.212,26.9518,26.9503,0.3950,90.5965,6.3599e+00,9.9990e+03,512,6.54 ,34.320,  .30,,,38.3
CalCOFI,0701JD,023,213,19-Jan-2007 12:22:59 AM,18-Jan-2007 4:22:59 PM,33.18882,-118.38250,090.0 037.0,090.0,037.0,510.000,514.268,6.5556,6.5567,34.3216,34.3203,34.3195,34.3196,0.29604,0.33,0.33,0.0254,,,1.6149,36.91,38.077,26.9507,26.9489,0.3954,90.5883,6.4152e+00,9.9990e+03,,,,,,,
CalCOFI,0701JD,023,213,19-Jan-2007 12:23:01 AM,18-Jan-2007 4:23:01 PM,33.18882,-118.38250,090.0 037.0,090.0,037.0,509.000,513.258,6.5636,6.5633,34.3211,34.3198,34.3194,34.3195,0.29755,0.33,0.33,0.0251,,,1.5932,36.28,37.425,26.9493,26.9479,0.3953,90.5910,6.5834e+00,9.9990e+03,,,,,,,
CalCOFI,0701JD,023,213,19-Jan-2007 12:23:03 AM,18-Jan-2007 4:23:03 PM,33.18882,-118.38250,090.0 037.0,090.0,037.0,508.000,512.248,6.5791,6.5796,34.3208,34.3195,34.3186,34.3187,0.29966,0.33,0.33,0.0255,,,1.6160,36.95,38.110,26.9470,26.9452,0.3955,90.5870,6.1915e+00,9.9990e+03,,,,,,,
CalCOFI,0701JD,023,213,19-Jan-2007 12:23:04 AM,18-Jan-2007 4:23:04 PM,33.18893,-118.38250,090.0 037.0,090.0,037.0,507.000,511.239,6.5890,6.5897,34.3201,34.3188,34.3182,34.3183,0.30160,0.33,0.34,0.0255,,,1.5837,36.00,37.140,26.9451,26.9435,0.3955,90.5868,6.2636e+00,9.9990e+03,,,,,,,
CalCOFI,0701JD,023,213,19-Jan-2007 12:23:06 AM,18-Jan-2007 4:23:06 PM,33.18900,-118.38250,090.0 037.0,090.0,037.0,506.000,510.229,6.5938,6.5963,34.3198,34.3185,34.3178,34.3179,0.30378,0.34,0.34,0.0254,,,1.5999,36.47,37.627,26.9443,26.9423,0.3960,90.5743,6.5514e+00,9.9990e+03,,,,,,,
CalCOFI,0701JD,023,213,19-Jan-2007 12:23:08 AM,18-Jan-2007 4:23:08 PM,33.18900,-118.38250,090.0 037.0,090.0,037.0,505.000,509.220,6.6117,6.6192,34.3192,34.3179,34.3164,34.3165,0.30704,0.34,0.34,0.0253,,,1.6087,36.73,37.891,26.9414,26.9381,0.3958,90.5790,6.3298e+00,9.9990e+03,,,,,,,
CalCOFI,0701JD,023,213,19-Jan-2007 12:23:10 AM,18-Jan-2007 4:23:10 PM,33.18900,-118.38243,090.0 037.0,090.0,037.0,504.000,508.210,6.6324,6.6373,34.3183,34.3170,34.3161,34.3162,0.31110,0.35,0.35,0.0252,,,1.5899,36.18,37.326,26.9379,26.9355,0.3962,90.5742,6.5349e+00,9.9990e+03,,,,,,,
CalCOFI,0701JD,023,213,19-Jan-2007 12:23:12 AM,18-Jan-2007 4:23:12 PM,33.18900,-118.38234,090.0 037.0,090.0,037.0,503.000,507.201,6.6476,6.6500,34.3175,34.3162,34.3154,34.3155,0.31359,0.35,0.35,0.0246,,,1.5831,35.98,37.122,26.9353,26.9332,-9.990e-29,90.5751,6.2928e+00,9.9990e+03,,,,,,,
CalCOFI,0701JD,023,213,19-Jan-2007 12:23:13 AM,18-Jan-2007 4:23:13 PM,33.18900,-118.38234,090.0 037.0,090.0,037.0,502.000,506.191,6.6569,6.6581,34.3170,34.3157,34.3152,34.3153,0.31535,0.35,0.35,0.0254,,,1.6038,36.59,37.744,26.9336,26.9320,0.3965,90.5707,5.9067e+00,9.9990e+03,,,,,,,
CalCOFI,0701JD,023,213,19-Jan-2007 12:23:14 AM,18-Jan-2007 4:23:14 PM,33.18900,-118.38234,090.0 037.0,090.0,037.0,501.000,505.181,6.6621,6.6630,34.3167,34.3154,34.3150,34.3151,0.31678,0.35,0.35,0.0255,,,1.6088,36.73,37.894,26.9327,26.9312,0.3966,90.5607,6.4813e+00,9.9990e+03,,,,,,,
CalCOFI,0701JD,023,213,19-Jan-2007 12:23:15 AM,18-Jan-2007 4:23:15 PM,33.18900,-118.38234,090.0 037.0,090.0,037.0,500.000,504.172,6.6702,6.6707,34.3166,34.3153,34.3146,34.3147,0.31919,0.35,0.36,0.0257,,,1.5919,36.24,37.386,26.9315,26.9298,0.3964,90.5668,6.2600e+00,9.9990e+03,,,,,,,
CalCOFI,0701JD,023,213,19-Jan-2007 12:23:16 AM,18-Jan-2007 4:23:16 PM,33.18900,-118.38234,090.0 037.0,090.0,037.0,499.000,503.162,6.6813,6.6850,34.3163,34.3150,34.3140,34.3141,0.32093,0.36,0.36,0.0252,,,1.6195,37.05,38.216,26.9298,26.9275,0.3972,90.5482,6.6840e+00,9.9990e+03,,,,,,,
CalCOFI,0701JD,023,213,19-Jan-2007 12:23:17 AM,18-Jan-2007 4:23:17 PM,33.18900,-118.38234,090.0 037.0,090.0,037.0,498.000,502.153,6.7146,6.7224,34.3161,34.3148,34.3135,34.3136,0.32227,0.36,0.36,0.0251,,,1.6290,37.33,38.501,26.9252,26.9220,0.3961,90.5733,6.3776e+00,9.9990e+03,,,,,,,
CalCOFI,0701JD,023,213,19-Jan-2007 12:23:18 AM,18-Jan-2007 4:23:18 PM,33.18900,-118.38234,090.0 037.0,090.0,037.0,497.000,501.143,6.7326,6.7334,34.3156,34.3143,34.3137,34.3138,0.32377,0.36,0.36,0.0250,,,1.5967,36.38,37.531,26.9223,26.9207,0.3954,90.5893,6.6452e+00,9.9990e+03,,,,,,,
CalCOFI,0701JD,023,213,19-Jan-2007 12:23:20 AM,18-Jan-2007 4:23:20 PM,33.18900,-118.38234,090.0 037.0,090.0,037.0,496.000,500.134,6.7385,6.7399,34.3154,34.3141,34.3137,34.3138,0.32449,0.36,0.36,0.0252,,,1.5952,36.33,37.486,26.9214,26.9198,0.3956,90.5840,6.4451e+00,9.9990e+03,,,,,,,
CalCOFI,0701JD,023,213,19-Jan-2007 12:23:21 AM,18-Jan-2007 4:23:21 PM,33.18900,-118.38234,090.0 037.0,090.0,037.0,495.000,499.124,6.7504,6.7688,34.3159,34.3146,34.3137,34.3138,0.32528,0.36,0.36,0.0252,,,1.6038,36.59,37.744,26.9202,26.9159,0.3955,90.5859,6.2993e+00,9.9990e+03,,,,,,,
CalCOFI,0701JD,023,213,19-Jan-2007 12:23:23 AM,18-Jan-2007 4:23:23 PM,33.18900,-118.38234,090.0 037.0,090.0,037.0,494.000,498.114,6.7800,6.7847,34.3157,34.3144,34.3137,34.3138,0.32615,0.36,0.37,0.0253,,,1.6110,36.80,37.960,26.9160,26.9138,0.3962,90.5709,6.4117e+00,9.9990e+03,,,,,,,
CalCOFI,0701JD,023,213,19-Jan-2007 12:23:25 AM,18-Jan-2007 4:23:25 PM,33.18900,-118.38234,090.0 037.0,090.0,037.0,493.000,497.105,6.7867,6.7918,34.3153,34.3140,34.3135,34.3136,0.32755,0.37,0.37,0.0253,,,1.6053,36.63,37.789,26.9148,26.9127,0.3954,90.5879,6.1539e+00,9.9990e+03,,,,,,,
CalCOFI,0701JD,023,213,19-Jan-2007 12:23:26 AM,18-Jan-2007 4:23:26 PM,33.18900,-118.38234,090.0 037.0,090.0,037.0,492.000,496.095,6.7950,6.7965,34.3150,34.3137,34.3133,34.3134,0.32878,0.37,0.37,0.0253,,,1.5800,35.89,37.029,26.9134,26.9119,0.3956,90.5845,6.5854e+00,9.9990e+03,,,,,,,
CalCOFI,0701JD,023,213,19-Jan-2007 12:23:27 AM,18-Jan-2007 4:23:27 PM,33.18900,-118.38234,090.0 037.0,090.0,037.0,491.000,495.086,6.8026,6.8038,34.3148,34.3135,34.3132,34.3133,0.32972,0.37,0.37,0.0251,,,1.5636,35.41,36.536,26.9122,26.9108,0.3958,90.5801,6.1472e+00,9.9990e+03,,,,,,,
CalCOFI,0701JD,023,213,19-Jan-2007 12:23:27 AM,18-Jan-2007 4:23:27 PM,33.18900,-118.38234,090.0 037.0,090.0,037.0,490.000,494.076,6.8108,6.8113,34.3149,34.3136,34.3132,34.3133,0.33033,0.37,0.37,0.0251,,,1.5559,35.18,36.305,26.9112,26.9098,0.3959,90.5783,6.3132e+00,9.9990e+03,,,,,,,
CalCOFI,0701JD,023,213,19-Jan-2007 12:23:29 AM,18-Jan-2007 4:23:29 PM,33.18900,-118.38234,090.0 037.0,090.0,037.0,489.000,493.067,6.8180,6.8187,34.3145,34.3132,34.3129,34.3130,0.33133,0.37,0.37,0.0248,,,1.5862,36.07,37.215,26.9099,26.9085,0.3959,90.5777,6.3356e+00,9.9990e+03,,,,,,,
CalCOFI,0701JD,023,213,19-Jan-2007 12:23:30 AM,18-Jan-2007 4:23:30 PM,33.18900,-118.38234,090.0 037.0,090.0,037.0,488.000,492.057,6.8197,6.8205,34.3140,34.3127,34.3127,34.3128,0.33363,0.37,0.37,0.0250,,,1.5849,36.03,37.176,26.9092,26.9081,-9.990e-29,90.5751,6.4814e+00,9.9990e+03,,,,,,,
CalCOFI,0701JD,023,213,19-Jan-2007 12:23:31 AM,18-Jan-2007 4:23:31 PM,33.18900,-118.38234,090.0 037.0,090.0,037.0,487.000,491.048,6.8241,6.8248,34.3136,34.3123,34.3121,34.3122,0.33488,0.37,0.38,0.0248,,,1.5920,36.24,37.389,26.9084,26.9071,-9.990e-29,90.5751,5.8341e+00,9.9990e+03,,,,,,,
CalCOFI,0701JD,023,213,19-Jan-2007 12:23:32 AM,18-Jan-2007 4:23:32 PM,33.18900,-118.38234,090.0 037.0,090.0,037.0,486.000,490.038,6.8289,6.8285,34.3132,34.3119,34.3118,34.3119,0.33605,0.38,0.38,0.0246,,,1.6028,36.56,37.714,26.9074,26.9063,-9.990e-29,90.5751,6.2167e+00,9.9990e+03,,,,,,,
CalCOFI,0701JD,023,213,19-Jan-2007 12:23:33 AM,18-Jan-2007 4:23:33 PM,33.18900,-118.38234,090.0 037.0,090.0,037.0,485.000,489.029,6.8312,6.8319,34.3131,34.3118,34.3117,34.3118,0.33753,0.38,0.38,0.0247,,,1.6048,36.62,37.774,26.9069,26.9058,0.3951,90.5848,6.3331e+00,9.9990e+03,,,,,,,
CalCOFI,0701JD,023,213,19-Jan-2007 12:23:34 AM,18-Jan-2007 4:23:34 PM,33.18900,-118.38234,090.0 037.0,090.0,037.0,484.000,488.019,6.8335,6.8352,34.3130,34.3117,34.3114,34.3115,0.33871,0.38,0.38,0.0255,,,1.5901,36.18,37.332,26.9065,26.9051,0.3952,90.5932,5.9137e+00,9.9990e+03,,,,,,,
CalCOFI,0701JD,023,213,19-Jan-2007 12:23:36 AM,18-Jan-2007 4:23:36 PM,33.18900,-118.38234,090.0 037.0,090.0,037.0,483.000,487.010,6.8367,6.8390,34.3127,34.3114,34.3111,34.3112,0.34207,0.38,0.39,0.0248,,,1.5652,35.45,36.584,26.9058,26.9043,0.3949,90.6000,6.8400e+00,9.9990e+03,,,,,,,
CalCOFI,0701JD,023,213,19-Jan-2007 12:23:37 AM,18-Jan-2007 4:23:37 PM,33.18900,-118.38234,090.0 037.0,090.0,037.0,482.000,486.000,6.8504,6.8548,34.3124,34.3111,34.3101,34.3102,0.34556,0.39,0.39,0.0257,,,1.5756,35.76,36.897,26.9038,26.9014,0.3947,90.6037,6.8347e+00,9.9990e+03,,,,,,,
CalCOFI,0701JD,023,213,19-Jan-2007 12:23:38 AM,18-Jan-2007 4:23:38 PM,33.18900,-118.38234,090.0 037.0,090.0,037.0,481.000,484.991,6.8696,6.8706,34.3108,34.3095,34.3094,34.3095,0.34757,0.39,0.39,0.0249,,,1.5933,36.28,37.428,26.8999,26.8987,0.3943,90.6132,6.6385e+00,9.9990e+03,,,,,,,
CalCOFI,0701JD,023,213,19-Jan-2007 12:23:39 AM,18-Jan-2007 4:23:39 PM,33.18900,-118.38234,090.0 037.0,090.0,037.0,480.000,483.981,6.8752,6.8762,34.3105,34.3092,34.3092,34.3093,0.35065,0.39,0.40,0.0254,,,1.5708,35.62,36.753,26.8989,26.8977,0.3943,90.6138,5.9996e+00,9.9990e+03,,,,,,,
CalCOFI,0701JD,023,213,19-Jan-2007 12:23:40 AM,18-Jan-2007 4:23:40 PM,33.18900,-118.38234,090.0 037.0,090.0,037.0,479.000,482.972,6.8856,6.8861,34.3104,34.3091,34.3087,34.3088,0.35225,0.40,0.40,0.0253,,,1.6130,36.86,38.020,26.8974,26.8960,0.3943,90.6144,6.4574e+00,9.9990e+03,,,,,,,
CalCOFI,0701JD,023,213,19-Jan-2007 12:23:41 AM,18-Jan-2007 4:23:41 PM,33.18900,-118.38234,090.0 037.0,090.0,037.0,478.000,481.962,6.8938,6.8940,34.3102,34.3089,34.3087,34.3088,0.35572,0.40,0.40,0.0244,,,1.5705,35.61,36.744,26.8961,26.8948,0.3947,90.6042,6.6751e+00,9.9990e+03,,,,,,,
CalCOFI,0701JD,023,213,19-Jan-2007 12:23:42 AM,18-Jan-2007 4:23:42 PM,33.18900,-118.38234,090.0 037.0,090.0,037.0,477.000,480.953,6.9018,6.9021,34.3095,34.3082,34.3082,34.3083,0.35635,0.40,0.40,0.0248,,,1.5686,35.55,36.687,26.8944,26.8934,0.3945,90.6098,6.6839e+00,9.9990e+03,,,,,,,
CalCOFI,0701JD,023,213,19-Jan-2007 12:23:43 AM,18-Jan-2007 4:23:43 PM,33.18900,-118.38234,090.0 037.0,090.0,037.0,476.000,479.944,6.9019,6.9024,34.3095,34.3082,34.3082,34.3083,0.35842,0.40,0.41,0.0249,,,1.5630,35.39,36.518,26.8944,26.8933,0.3941,90.6187,6.5522e+00,9.9990e+03,,,,,,,
CalCOFI,0701JD,023,213,19-Jan-2007 12:23:44 AM,18-Jan-2007 4:23:44 PM,33.18900,-118.38234,090.0 037.0,090.0,037.0,475.000,478.934,6.9068,6.9090,34.3096,34.3083,34.3080,34.3081,0.35950,0.40,0.41,0.0252,,,1.5464,34.90,36.020,26.8938,26.8923,0.3941,90.6186,6.3690e+00,9.9990e+03,,,,,,,
CalCOFI,0701JD,023,213,19-Jan-2007 12:23:45 AM,18-Jan-2007 4:23:45 PM,33.18900,-118.38234,090.0 037.0,090.0,037.0,474.000,477.925,6.9236,6.9252,34.3098,34.3085,34.3083,34.3084,0.35988,0.40,0.41,0.0253,,,1.5445,34.85,35.963,26.8917,26.8903,0.3944,90.6109,6.1930e+00,9.9990e+03,,,,,,,
CalCOFI,0701JD,023,213,19-Jan-2007 12:23:46 AM,18-Jan-2007 4:23:46 PM,33.18900,-118.38234,090.0 037.0,090.0,037.0,473.000,476.915,6.9348,6.9350,34.3107,34.3094,34.3091,34.3092,0.35931,0.40,0.41,0.0254,,,1.5564,35.20,36.320,26.8909,26.8896,0.3947,90.6040,6.9372e+00,9.9990e+03,,,,,,,
CalCOFI,0701JD,023,213,19-Jan-2007 12:23:47 AM,18-Jan-2007 4:23:47 PM,33.18900,-118.38234,090.0 037.0,090.0,037.0,472.000,475.906,6.9431,6.9437,34.3108,34.3095,34.3097,34.3098,0.35950,0.40,0.41,0.0259,,,1.5648,35.44,36.572,26.8898,26.8888,0.3952,90.5931,6.4225e+00,9.9990e+03,,,,,,,
CalCOFI,0701JD,023,213,19-Jan-2007 12:23:48 AM,18-Jan-2007 4:23:48 PM,33.18900,-118.38234,090.0 037.0,090.0,037.0,471.000,474.896,6.9477,6.9488,34.3112,34.3099,34.3098,34.3099,0.36057,0.41,0.41,0.0250,,,1.5838,36.00,37.143,26.8895,26.8882,0.3952,90.5931,6.4983e+00,9.9990e+03,,,,,,,
CalCOFI,0701JD,023,213,19-Jan-2007 12:23:49 AM,18-Jan-2007 4:23:49 PM,33.18900,-118.38234,090.0 037.0,090.0,037.0,470.000,473.887,6.9556,6.9568,34.3110,34.3097,34.3097,34.3098,0.36057,0.41,0.41,0.0247,,,1.5960,36.36,37.510,26.8882,26.8870,0.3951,90.5944,6.5945e+00,9.9990e+03,,,,,,,
CalCOFI,0701JD,023,213,19-Jan-2007 12:23:50 AM,18-Jan-2007 4:23:50 PM,33.18910,-118.38234,090.0 037.0,090.0,037.0,469.000,472.877,6.9616,6.9624,34.3109,34.3096,34.3096,34.3097,0.36138,0.41,0.41,0.0248,,,1.5732,35.69,36.825,26.8873,26.8861,0.3953,90.5919,6.1433e+00,9.9990e+03,,,,,,,
CalCOFI,0701JD,023,213,19-Jan-2007 12:23:51 AM,18-Jan-2007 4:23:51 PM,33.18916,-118.38234,090.0 037.0,090.0,037.0,468.000,471.868,6.9648,6.9656,34.3106,34.3093,34.3095,34.3096,0.36293,0.41,0.41,0.0250,,,1.5832,35.98,37.125,26.8866,26.8856,0.3954,90.5892,6.2391e+00,9.9990e+03,,,,,,,
CalCOFI,0701JD,023,213,19-Jan-2007 12:23:52 AM,18-Jan-2007 4:23:52 PM,33.18916,-118.38234,090.0 037.0,090.0,037.0,467.000,470.859,6.9676,6.9683,34.3104,34.3091,34.3093,34.3094,0.36346,0.41,0.41,0.0253,,,1.5632,35.40,36.524,26.8861,26.8851,0.3953,90.5899,6.5281e+00,9.9990e+03,,,,,,,
CalCOFI,0701JD,023,213,19-Jan-2007 12:23:54 AM,18-Jan-2007 4:23:54 PM,33.18916,-118.38229,090.0 037.0,090.0,037.0,466.000,469.849,6.9696,6.9700,34.3103,34.3090,34.3092,34.3093,0.36364,0.41,0.41,0.0250,,,1.5688,35.56,36.693,26.8857,26.8848,0.3953,90.5913,6.0532e+00,9.9990e+03,,,,,,,
CalCOFI,0701JD,023,213,19-Jan-2007 12:23:55 AM,18-Jan-2007 4:23:55 PM,33.18916,-118.38218,090.0 037.0,090.0,037.0,465.000,468.840,6.9713,6.9733,34.3104,34.3091,34.3092,34.3093,0.36500,0.41,0.41,0.0251,,,1.5723,35.66,36.798,26.8856,26.8843,0.3952,90.5937,6.7308e+00,9.9990e+03,,,,,,,
CalCOFI,0701JD,023,213,19-Jan-2007 12:23:56 AM,18-Jan-2007 4:23:56 PM,33.18916,-118.38218,090.0 037.0,090.0,037.0,464.000,467.830,6.9811,6.9825,34.3102,34.3089,34.3088,34.3089,0.36696,0.41,0.42,0.0254,,,1.5596,35.29,36.416,26.8840,26.8827,0.3952,90.5939,6.0348e+00,9.9990e+03,,,,,,,
CalCOFI,0701JD,023,213,19-Jan-2007 12:23:57 AM,18-Jan-2007 4:23:57 PM,33.18916,-118.38218,090.0 037.0,090.0,037.0,463.000,466.821,6.9920,6.9929,34.3099,34.3086,34.3084,34.3085,0.36953,0.42,0.42,0.0255,,,1.5683,35.55,36.678,26.8823,26.8810,0.3957,90.5829,6.5253e+00,9.9990e+03,,,,,,,
CalCOFI,0701JD,023,213,19-Jan-2007 12:23:58 AM,18-Jan-2007 4:23:58 PM,33.18916,-118.38218,090.0 037.0,090.0,037.0,462.000,465.812,7.0083,7.0097,34.3096,34.3083,34.3078,34.3079,0.37210,0.42,0.42,0.0250,,,1.5686,35.55,36.687,26.8798,26.8782,-9.990e-29,-9.990e-29,6.5945e+00,9.9990e+03,,,,,,,
CalCOFI,0701JD,023,213,19-Jan-2007 12:23:59 AM,18-Jan-2007 4:23:59 PM,33.18916,-118.38218,090.0 037.0,090.0,037.0,461.000,464.802,7.0201,7.0206,34.3085,34.3072,34.3073,34.3074,0.37617,0.42,0.43,0.0250,,,1.5559,35.18,36.305,26.8773,26.8763,-9.990e-29,-9.990e-29,5.6885e+00,9.9990e+03,,,,,,,
CalCOFI,0701JD,023,213,19-Jan-2007 12:24:00 AM,18-Jan-2007 4:24:00 PM,33.18916,-118.38218,090.0 037.0,090.0,037.0,460.000,463.793,7.0352,7.0373,34.3080,34.3067,34.3064,34.3065,0.38059,0.43,0.43,0.0249,,,1.5540,35.13,36.248,26.8748,26.8733,-9.990e-29,-9.990e-29,6.5917e+00,9.9990e+03,,,,,,,
CalCOFI,0701JD,023,213,19-Jan-2007 12:24:01 AM,18-Jan-2007 4:24:01 PM,33.18916,-118.38218,090.0 037.0,090.0,037.0,459.000,462.784,7.0577,7.0595,34.3070,34.3057,34.3054,34.3055,0.38469,0.43,0.44,0.0254,,,1.5721,35.66,36.792,26.8709,26.8695,0.3949,90.5998,6.5420e+00,9.9990e+03,,,,,,,
CalCOFI,0701JD,023,213,19-Jan-2007 12:24:02 AM,18-Jan-2007 4:24:02 PM,33.18916,-118.38218,090.0 037.0,090.0,037.0,458.000,461.774,7.0724,7.0758,34.3061,34.3048,34.3050,34.3051,0.38815,0.44,0.44,0.0250,,,1.5566,35.20,36.326,26.8682,26.8668,0.3950,90.5967,6.6929e+00,9.9990e+03,,,,,,,
CalCOFI,0701JD,023,213,19-Jan-2007 12:24:03 AM,18-Jan-2007 4:24:03 PM,33.18916,-118.38218,090.0 037.0,090.0,037.0,457.000,460.765,7.0765,7.0872,34.3065,34.3052,34.3046,34.3047,0.39269,0.44,0.45,0.0252,,,1.5586,35.26,36.386,26.8679,26.8650,0.3948,90.6018,6.1677e+00,9.9990e+03,,,,,,,
CalCOFI,0701JD,023,213,19-Jan-2007 12:24:04 AM,18-Jan-2007 4:24:04 PM,33.18916,-118.38218,090.0 037.0,090.0,037.0,456.000,459.756,7.0976,7.0978,34.3055,34.3042,34.3046,34.3047,0.39559,0.45,0.45,0.0253,,,1.5308,34.44,35.551,26.8643,26.8635,0.3949,90.5987,6.6821e+00,9.9990e+03,,,,,,,
CalCOFI,0701JD,023,213,19-Jan-2007 12:24:05 AM,18-Jan-2007 4:24:05 PM,33.18916,-118.38218,090.0 037.0,090.0,037.0,455.000,458.746,7.1100,7.1116,34.3052,34.3039,34.3042,34.3043,0.39889,0.45,0.45,0.0248,,,1.5560,35.18,36.308,26.8622,26.8613,0.3950,90.5966,6.6778e+00,9.9990e+03,,,,,,,
CalCOFI,0701JD,023,213,19-Jan-2007 12:24:06 AM,18-Jan-2007 4:24:06 PM,33.18916,-118.38218,090.0 037.0,090.0,037.0,454.000,457.737,7.1208,7.1227,34.3058,34.3045,34.3041,34.3042,0.40139,0.46,0.46,0.0250,,,1.5537,35.12,36.239,26.8612,26.8597,0.3954,90.5892,6.3484e+00,9.9990e+03,,,,,,,
CalCOFI,0701JD,023,213,19-Jan-2007 12:24:07 AM,18-Jan-2007 4:24:07 PM,33.18916,-118.38218,090.0 037.0,090.0,037.0,453.000,456.727,7.1448,7.1471,34.3051,34.3038,34.3037,34.3038,0.40399,0.46,0.46,0.0250,,,1.5258,34.30,35.401,26.8573,26.8560,0.3957,90.5816,6.7589e+00,9.9990e+03,,,,,,,
CalCOFI,0701JD,023,213,19-Jan-2007 12:24:08 AM,18-Jan-2007 4:24:08 PM,33.18916,-118.38218,090.0 037.0,090.0,037.0,452.000,455.718,7.1560,7.1577,34.3047,34.3034,34.3035,34.3036,0.40737,0.46,0.46,0.0257,,,1.5368,34.62,35.731,26.8555,26.8543,0.3955,90.5865,5.9871e+00,9.9990e+03,,,,,,,
CalCOFI,0701JD,023,213,19-Jan-2007 12:24:09 AM,18-Jan-2007 4:24:09 PM,33.18916,-118.38218,090.0 037.0,090.0,037.0,451.000,454.709,7.1670,7.1695,34.3045,34.3032,34.3033,34.3034,0.41104,0.47,0.47,0.0254,,,1.5727,35.67,36.810,26.8538,26.8524,0.3953,90.5914,5.9245e+00,9.9990e+03,,,,,,,
CalCOFI,0701JD,023,213,19-Jan-2007 12:24:10 AM,18-Jan-2007 4:24:10 PM,33.18916,-118.38218,090.0 037.0,090.0,037.0,450.000,453.699,7.1911,7.1936,34.3044,34.3031,34.3025,34.3026,0.41460,0.47,0.47,0.0246,,,1.5676,35.52,36.656,26.8503,26.8485,0.3953,90.5907,6.7922e+00,9.9990e+03,,,,,,,
CalCOFI,0701JD,023,213,19-Jan-2007 12:24:11 AM,18-Jan-2007 4:24:11 PM,33.18916,-118.38218,090.0 037.0,090.0,037.0,449.000,452.690,7.2098,7.2110,34.3035,34.3022,34.3022,34.3023,0.41679,0.47,0.48,0.0248,,,1.5109,33.86,34.953,26.8470,26.8458,0.3954,90.5894,6.4656e+00,9.9990e+03,,,,,,,
CalCOFI,0701JD,023,213,19-Jan-2007 12:24:12 AM,18-Jan-2007 4:24:12 PM,33.18916,-118.38218,090.0 037.0,090.0,037.0,448.000,451.681,7.2222,7.2228,34.3032,34.3019,34.3022,34.3023,0.41875,0.48,0.48,0.0248,,,1.5283,34.37,35.476,26.8450,26.8442,0.3955,90.5864,6.5434e+00,9.9990e+03,,,,,,,
CalCOFI,0701JD,023,213,19-Jan-2007 12:24:13 AM,18-Jan-2007 4:24:13 PM,33.18916,-118.38218,090.0 037.0,090.0,037.0,447.000,450.672,7.2248,7.2257,34.3032,34.3019,34.3024,34.3025,0.42128,0.48,0.48,0.0249,,,1.5470,34.92,36.038,26.8446,26.8439,0.3961,90.5733,6.1111e+00,9.9990e+03,,,,,,,
CalCOFI,0701JD,023,213,19-Jan-2007 12:24:14 AM,18-Jan-2007 4:24:14 PM,33.18916,-118.38218,090.0 037.0,090.0,037.0,446.000,449.662,7.2239,7.2274,34.3032,34.3019,34.3023,34.3024,0.42629,0.49,0.49,0.0250,,,1.5244,34.26,35.359,26.8448,26.8436,0.3952,90.5925,6.5967e+00,9.9990e+03,,,,,,,
CalCOFI,0701JD,023,213,19-Jan-2007 12:24:16 AM,18-Jan-2007 4:24:16 PM,33.18916,-118.38218,090.0 037.0,090.0,037.0,445.000,448.653,7.2464,7.2534,34.3037,34.3024,34.3016,34.3017,0.43135,0.49,0.49,0.0254,,,1.5552,35.16,36.284,26.8420,26.8394,0.3951,90.5945,7.0284e+00,9.9990e+03,,,,,,,
CalCOFI,0701JD,023,213,19-Jan-2007 12:24:17 AM,18-Jan-2007 4:24:17 PM,33.18916,-118.38218,090.0 037.0,090.0,037.0,444.000,447.644,7.2763,7.2787,34.3024,34.3011,34.3010,34.3011,0.43682,0.50,0.50,0.0251,,,1.5359,34.59,35.704,26.8368,26.8353,0.3954,90.5887,6.4285e+00,9.9990e+03,,,,,,,
CalCOFI,0701JD,023,213,19-Jan-2007 12:24:17 AM,18-Jan-2007 4:24:17 PM,33.18916,-118.38218,090.0 037.0,090.0,037.0,443.000,446.634,7.3209,7.3242,34.3016,34.3003,34.2994,34.2995,0.44127,0.50,0.51,0.0250,,,1.5379,34.65,35.764,26.8299,26.8277,0.3958,90.5804,6.8671e+00,9.9990e+03,,,,,,,
CalCOFI,0701JD,023,213,19-Jan-2007 12:24:18 AM,18-Jan-2007 4:24:18 PM,33.18916,-118.38218,090.0 037.0,090.0,037.0,442.000,445.625,7.3403,7.3411,34.2998,34.2985,34.2992,34.2993,0.44478,0.51,0.51,0.0250,,,1.5368,34.62,35.731,26.8257,26.8252,0.3958,90.5807,5.9354e+00,9.9990e+03,,,,,,,
CalCOFI,0701JD,023,213,19-Jan-2007 12:24:19 AM,18-Jan-2007 4:24:19 PM,33.18916,-118.38218,090.0 037.0,090.0,037.0,441.000,444.616,7.3436,7.3438,34.2999,34.2986,34.2992,34.2993,0.44951,0.51,0.52,0.0249,,,1.5214,34.17,35.269,26.8254,26.8248,0.3957,90.5810,6.2200e+00,9.9990e+03,,,,,,,
CalCOFI,0701JD,023,213,19-Jan-2007 12:24:20 AM,18-Jan-2007 4:24:20 PM,33.18916,-118.38218,090.0 037.0,090.0,037.0,440.000,443.607,7.3489,7.3513,34.2998,34.2985,34.2991,34.2992,0.45442,0.52,0.52,0.0246,,,1.5044,33.67,34.758,26.8245,26.8236,0.3955,90.5865,6.7909e+00,9.9990e+03,,,,,,,
CalCOFI,0701JD,023,213,19-Jan-2007 12:24:21 AM,18-Jan-2007 4:24:21 PM,33.18916,-118.38218,090.0 037.0,090.0,037.0,439.000,442.597,7.3680,7.3710,34.2994,34.2981,34.2982,34.2983,0.45991,0.53,0.53,0.0253,,,1.5557,35.18,36.299,26.8215,26.8201,0.3955,90.5855,6.1868e+00,9.9990e+03,,,,,,,
CalCOFI,0701JD,023,213,19-Jan-2007 12:24:22 AM,18-Jan-2007 4:24:22 PM,33.18916,-118.38218,090.0 037.0,090.0,037.0,438.000,441.588,7.3845,7.3871,34.2991,34.2978,34.2979,34.2980,0.46340,0.53,0.53,0.0255,,,1.5542,35.13,36.254,26.8189,26.8176,0.3957,90.5827,5.9069e+00,9.9990e+03,438,7.41 ,34.296,  .53,,,35.6
CalCOFI,0701JD,023,213,19-Jan-2007 12:24:25 AM,18-Jan-2007 4:24:25 PM,33.18916,-118.38218,090.0 037.0,090.0,037.0,437.000,440.579,7.3958,7.3984,34.2981,34.2968,34.2975,34.2976,0.46660,0.53,0.54,0.0251,,,1.5319,34.48,35.584,26.8166,26.8157,0.3958,90.5783,6.4040e+00,9.9990e+03,,,,,,,
CalCOFI,0701JD,023,213,19-Jan-2007 12:24:29 AM,18-Jan-2007 4:24:29 PM,33.18916,-118.38218,090.0 037.0,090.0,037.0,436.000,439.569,7.4085,7.4176,34.2980,34.2967,34.2965,34.2966,0.47276,0.54,0.54,0.0247,,,1.5319,34.48,35.584,26.8146,26.8121,0.3960,90.5751,6.4269e+00,9.9990e+03,,,,,,,
CalCOFI,0701JD,023,213,19-Jan-2007 12:24:44 AM,18-Jan-2007 4:24:44 PM,33.18922,-118.38214,090.0 037.0,090.0,037.0,435.000,438.560,7.4223,7.4236,34.2970,34.2957,34.2967,34.2968,0.47621,0.55,0.55,0.0250,,,1.5046,33.68,34.764,26.8119,26.8114,0.3957,90.5814,6.4708e+00,9.9990e+03,,,,,,,
CalCOFI,0701JD,023,213,19-Jan-2007 12:26:26 AM,18-Jan-2007 4:26:26 PM,33.18966,-118.38184,090.0 037.0,090.0,037.0,434.000,437.551,7.4255,7.4256,34.2978,34.2965,34.2970,34.2971,0.48020,0.55,0.55,0.0249,,,1.5383,34.66,35.776,26.8120,26.8114,0.3967,90.5585,6.4578e+00,9.9990e+03,,,,,,,
CalCOFI,0701JD,023,213,19-Jan-2007 12:26:28 AM,18-Jan-2007 4:26:28 PM,33.18966,-118.38184,090.0 037.0,090.0,037.0,433.000,436.542,7.4346,7.4343,34.2976,34.2963,34.2968,34.2969,0.48436,0.56,0.56,0.0247,,,1.5243,34.25,35.356,26.8106,26.8100,0.3965,90.5632,6.3456e+00,9.9990e+03,,,,,,,
CalCOFI,0701JD,023,213,19-Jan-2007 12:26:29 AM,18-Jan-2007 4:26:29 PM,33.18966,-118.38184,090.0 037.0,090.0,037.0,432.000,435.532,7.4598,7.4581,34.2970,34.2957,34.2957,34.2958,0.48724,0.56,0.56,0.0249,,,1.5304,34.43,35.539,26.8065,26.8057,0.3970,90.5522,6.7064e+00,9.9990e+03,,,,,,,
CalCOFI,0701JD,023,213,19-Jan-2007 12:26:31 AM,18-Jan-2007 4:26:31 PM,33.18966,-118.38184,090.0 037.0,090.0,037.0,431.000,434.523,7.4697,7.4758,34.2962,34.2949,34.2953,34.2954,0.49249,0.57,0.57,0.0248,,,1.5181,34.07,35.170,26.8045,26.8029,0.3963,90.5688,6.4212e+00,9.9990e+03,,,,,,,
CalCOFI,0701JD,023,213,19-Jan-2007 12:26:33 AM,18-Jan-2007 4:26:33 PM,33.18966,-118.38184,090.0 037.0,090.0,037.0,430.000,433.514,7.4850,7.4872,34.2955,34.2942,34.2944,34.2945,0.49777,0.57,0.58,0.0247,,,1.4997,33.53,34.617,26.8017,26.8006,0.3963,90.5673,6.4176e+00,9.9990e+03,,,,,,,